TimeEST,TemperatureF,Dew PointF,Humidity,Sea Level PressureIn,VisibilityMPH,Wind Direction,Wind SpeedMPH,Gust SpeedMPH,PrecipitationIn,Events,Conditions,WindDirDegrees,DateUTC
12:51 AM,30.0,21.9,72,29.98,10.0,NNE,3.5,-,N/A,,Mostly Cloudy,20,2013-02-15 05:51:00
1:51 AM,28.9,21.9,75,29.98,10.0,Calm,Calm,-,N/A,,Mostly Cloudy,0,2013-02-15 06:51:00
2:51 AM,25.0,19.0,78,29.97,10.0,Calm,Calm,-,N/A,,Clear,0,2013-02-15 07:51:00
3:51 AM,24.1,19.9,84,29.98,10.0,Calm,Calm,-,N/A,,Partly Cloudy,0,2013-02-15 08:51:00
4:51 AM,21.9,19.0,89,29.98,10.0,Calm,Calm,-,N/A,,Clear,0,2013-02-15 09:51:00
5:51 AM,24.1,19.9,84,29.98,10.0,WSW,4.6,-,N/A,,Scattered Clouds,240,2013-02-15 10:51:00
6:51 AM,24.1,19.9,84,29.97,10.0,WSW,3.5,-,N/A,,Mostly Cloudy,240,2013-02-15 11:51:00
7:51 AM,30.0,24.1,79,29.97,10.0,SW,5.8,-,N/A,,Overcast,220,2013-02-15 12:51:00
8:51 AM,33.1,26.1,75,29.98,9.0,WSW,5.8,-,N/A,,Mostly Cloudy,240,2013-02-15 13:51:00
9:51 AM,35.1,27.0,72,29.97,9.0,SSW,8.1,-,0.00,,Overcast,200,2013-02-15 14:51:00
10:51 AM,37.9,28.0,68,29.97,9.0,SW,8.1,-,0.00,,Mostly Cloudy,220,2013-02-15 15:51:00
11:51 AM,39.9,30.9,70,29.94,9.0,South,9.2,-,N/A,,Partly Cloudy,190,2013-02-15 16:51:00
12:51 PM,42.1,32.0,67,29.91,9.0,South,10.4,-,N/A,,Clear,170,2013-02-15 17:51:00
1:51 PM,44.1,33.1,65,29.91,9.0,South,8.1,-,N/A,,Partly Cloudy,180,2013-02-15 18:51:00
2:51 PM,44.1,33.1,65,29.91,9.0,South,8.1,18.4,N/A,,Clear,170,2013-02-15 19:51:00
3:51 PM,43.0,34.0,71,29.89,9.0,South,12.7,-,N/A,,Clear,180,2013-02-15 20:51:00
4:51 PM,42.1,34.0,73,29.90,10.0,South,12.7,-,N/A,,Clear,170,2013-02-15 21:51:00
5:51 PM,42.1,34.0,73,29.90,10.0,South,9.2,-,N/A,,Partly Cloudy,170,2013-02-15 22:51:00
6:51 PM,41.0,35.1,79,29.91,10.0,SSW,5.8,-,N/A,,Overcast,200,2013-02-15 23:51:00
7:51 PM,39.9,34.0,79,29.92,10.0,SSW,5.8,-,N/A,,Partly Cloudy,200,2013-02-16 00:51:00
8:51 PM,36.0,32.0,86,29.93,8.0,Calm,Calm,-,N/A,,Clear,0,2013-02-16 01:51:00
9:51 PM,32.0,30.0,92,29.93,6.0,WNW,4.6,-,N/A,,Clear,300,2013-02-16 02:51:00
10:51 PM,30.0,28.9,96,29.94,6.0,Calm,Calm,-,N/A,,Partly Cloudy,0,2013-02-16 03:51:00
11:51 PM,28.9,27.0,92,29.94,5.0,WNW,4.6,-,N/A,,Scattered Clouds,290,2013-02-16 04:51:00